This demonstration page uses our WeatherBlox Daily Observations layout. Learn more.

Left ArrowRight Arrow

47.50024, -111.30081

Hourly Observations for April 16, 2022

Temp ( °F °C ) Dew Point ( °F °C ) Humidity (%) Winds ( mph kmh ) Pressure ( in mb ) Visibility ( mi km ) Precip ( " mm )
12:53 am 00:53 Clear 20 -6.7 10 -12.2 65 65 SE 7 11 30.29 1026 10 16 0.00 0.00
1:53 am 01:53 Cloudy 12 -11.1 8 -13.3 84 84 SW 5 7 30.30 1026 10 16 0.00 0.00
2:53 am 02:53 Clear 16 -8.9 8 -13.3 71 71 Calm 30.28 1025 10 16 0.00 0.00
3:53 am 03:53 Clear 12 -11.1 7 -13.9 80 80 N 5 7 30.27 1025 10 16 0.00 0.00
4:53 am 04:53 Clear 15 -9.4 10 -12.2 80 80 NNE 5 7 30.24 1024 10 16 0.00 0.00
5:53 am 05:53 Clear 14 -10 8 -13.3 77 77 Calm 30.22 1024 10 16 0.00 0.00
6:53 am 06:53 Sunny 8 -13.3 4 -15.6 83 83 WNW 3 6 30.23 1024 10 16 0.00 0.00
7:53 am 07:53 Sunny 16 -8.9 11 -11.7 80 80 Calm 30.20 1023 10 16 0.00 0.00
8:53 am 08:53 Sunny 21 -6.1 15 -9.4 78 78 Calm 30.17 1022 10 16 0.00 0.00
9:53 am 09:53 Sunny 25 -3.9 14 -10 63 63 NE 6 9 30.14 1021 10 16 0.00 0.00
10:22 am 10:22 Sunny 27 -2.8 15 -9.4 61 61 ENE 5 7 30.10 1019 10 16 0.00 0.00
10:53 am 10:53 Partly Cloudy 28 -2.2 16 -8.9 60 60 ENE 7 11 30.09 1019 10 16 0.00 0.00
11:53 am 11:53 Cloudy 29 -1.7 17 -8.3 61 61 NNE 7 11 30.05 1018 10 16 0.00 0.00
12:53 pm 12:53 Cloudy 30 -1.1 19 -7.2 64 64 NNW 7 11 29.99 1016 10 16 0.00 0.00
1:53 pm 13:53 Cloudy 32 0 20 -6.7 61 61 N 7 11 29.96 1015 10 16 0.00 0.00
2:19 pm 14:19 Cloudy with Light Snow 31 -0.6 20 -6.7 64 64 N 5 7 29.89 1012 4 6 0.00 0.00
2:32 pm 14:32 Cloudy with Light Snow 31 -0.6 22 -5.6 69 69 Calm 29.88 1012 2 3 0.00 0.00
2:39 pm 14:39 Cloudy with Light Snow 30 -1.1 22 -5.6 72 72 VRB 3 6 29.89 1012 1 2 0.00 0.00
2:53 pm 14:53 Cloudy with Light Snow 30 -1.1 23 -5 75 75 E 13 20 29.91 1013 1 1 0.00 0.00
3:02 pm 15:02 Cloudy with Snow 29 -1.7 26 -3.3 89 89 E 17 28 29.89 1012 0 0 0.00 0.00
3:17 pm 15:17 Mostly Cloudy with Snow 29 -1.7 26 -3.3 89 89 E 21 33 29.88 1012 0 0 0.03 0.76
3:53 pm 15:53 Mostly Cloudy with Heavy Snow 28 -2.2 26 -3.3 92 92 E 14 22 29.91 1013 0 0 0.07 1.78
4:11 pm 16:11 Mostly Cloudy with Heavy Snow 28 -2.2 25 -3.9 88 88 E 21 33 29.87 1012 0 0 0.04 1.02
4:26 pm 16:26 Mostly Cloudy with Snow 28 -2.2 25 -3.9 88 88 E 21 33 29.87 1012 0 0 0.07 1.78
4:53 pm 16:53 Mostly Cloudy with Snow 28 -2.2 25 -3.9 88 88 E 20 31 29.90 1012 1 1 0.09 2.29
5:42 pm 17:42 Cloudy with Snow 28 -2.2 25 -3.9 88 88 E 14 22 29.87 1012 1 1 0.03 0.76
5:48 pm 17:48 Cloudy with Light Snow 28 -2 25 -4 86 86 E 13 20 29.87 1012 1 2 0.03 0.76
5:53 pm 17:53 Cloudy with Light Snow 28 -2.2 25 -3.9 88 88 E 13 20 29.90 1013 1 2 0.03 0.76
6:09 pm 18:09 Cloudy with Light Snow 28 -2.2 26 -3.3 92 92 ESE 9 15 29.87 1012 2 2 0.00 0.00
6:32 pm 18:32 Cloudy with Mist and Fog 28 -2.2 25 -3.9 88 88 E 10 17 29.87 1012 6 10 0.00 0.00
6:53 pm 18:53 Cloudy 28 -2.2 25 -3.9 88 88 ESE 9 15 29.92 1013 9 14 0.00 0.00
7:01 pm 19:01 Cloudy with Mist and Fog 28 -2.2 25 -3.9 88 88 SSE 9 15 29.87 1012 6 10 0.00 0.00
7:36 pm 19:36 Cloudy 27 -2.8 24 -4.4 89 89 S 6 9 29.88 1012 10 16 0.00 0.00
7:53 pm 19:53 Cloudy 27 -2.8 24 -4.4 89 89 SSW 7 11 29.92 1013 10 16 0.00 0.00
8:11 pm 20:11 Cloudy 26 -3.3 24 -4.4 92 92 S 3 6 29.91 1013 10 16 0.00 0.00
8:44 pm 20:44 Cloudy 26 -3.3 23 -5 88 88 S 6 9 29.93 1014 10 16 0.00 0.00
8:53 pm 20:53 Cloudy 26 -3.3 23 -5 88 88 SSW 9 15 29.93 1013 10 16 0.00 0.00
9:03 pm 21:03 Cloudy 27 -2.8 23 -5 85 85 SSW 9 15 29.93 1014 10 16 0.00 0.00
9:45 pm 21:45 Cloudy 27 -2.8 24 -4.4 89 89 SSW 6 9 29.94 1014 10 16 0.00 0.00
9:53 pm 21:53 Cloudy 27 -2.8 24 -4.4 89 89 SW 7 11 29.93 1014 10 16 0.00 0.00
10:06 pm 22:06 Cloudy 27 -2.8 24 -4.4 89 89 SSW 8 13 29.95 1014 10 16 0.00 0.00
10:53 pm 22:53 Cloudy 27 -2.8 25 -3.9 92 92 WSW 9 15 29.94 1014 9 14 0.00 0.00
11:05 pm 23:05 Cloudy 27 -2.8 25 -3.9 92 92 W 12 19 29.97 1015 10 16 0.00 0.00
11:40 pm 23:40 Cloudy 26 -3.3 24 -4.4 92 92 W 9 15 29.99 1016 10 16 0.00 0.00
11:53 pm 23:53 Cloudy 26 -3.3 24 -4.4 92 92 W 9 15 29.97 1015 10 16 0.00 0.00

Powered by AerisWeather